Weather History for KFEP - July, 2013

Change the Weather History Date:

Tuesday, July 2, 2013

  Actual Average Record
Temperature  
Mean Temperature 66 °F -  
Max Temperature 77 °F 82 °F 93 °F (1975)
Min Temperature 55 °F 60 °F 42 °F (2005)
Cooling Degree Days 1    
Growing Degree Days 16 (Base 50)    
Moisture  
Dew Point 54 °F    
Average Humidity 68    
Maximum Humidity 90    
Minimum Humidity 28    
Precipitation  
Precipitation 0.00 in - - ()
Sea Level Pressure  
Sea Level Pressure 30.11 in    
Wind  
Wind Speed 3 mph (NNE)    
Max Wind Speed 15 mph    
Max Gust Speed 20 mph    
Visibility 10 miles    
Events Thunderstorm    
Averages and records for this station are not official NWS values.
T = Trace of Precipitation, MM = Missing Value Source: NWS Daily Summary

Daily Weather History Graph

Daily Weather History Graph

Search for Another Location

Airport or City:

Trip Planner

Search our weather history database for the weather conditions in past years. The results will help you decide how hot, cold, wet, or windy it might be!

Date:

Astronomy

Jul. 02, 2013 Rise Set
Actual Time 5:26 AM CDT 8:38 PM CDT
Civil Twilight 4:51 AM CDT 9:12 PM CDT
Nautical Twilight 4:07 AM CDT 9:56 PM CDT
Astronomical Twilight 3:14 AM CDT 10:50 PM CDT
Moon 1:32 AM CDT (7/2) 3:49 PM CDT (7/2)
Length of Visible Light 16h 20m
Length of Day
15h 12m
Waning Crescent, 26% of the Moon is Illuminated
Jul 2
Waning Crescent
Jul 8
New
Jul 15
First Quarter
Jul 22
Full
Jul 29
Last Quarter

Hourly Weather History & Observations

Time (CDT) Temp. Dew Point Humidity Pressure Visibility Wind Dir Wind Speed Gust Speed Precip Events Conditions
12:15 AM 61.7 °F 57.4 °F 86% 30.12 in - Calm Calm - N/A   Clear
12:35 AM 59.0 °F 55.4 °F 88% 30.12 in - Calm Calm - N/A   Unknown
12:55 AM 60.1 °F 56.1 °F 87% 30.13 in - Calm Calm - N/A   Unknown
1:15 AM 59.2 °F 55.4 °F 87% 30.13 in - Calm Calm - N/A   Unknown
1:35 AM 59.0 °F 55.8 °F 89% 30.12 in - Calm Calm - N/A   Unknown
1:55 AM 59.0 °F 55.6 °F 88% 30.12 in - WNW 3.5 mph - N/A Thunderstorm Thunderstorm
2:15 AM 58.3 °F 55.4 °F 90% 30.12 in - NW 4.6 mph - N/A   Unknown
2:35 AM 56.5 °F 53.4 °F 89% 30.11 in - NW 4.6 mph - N/A   Unknown
2:55 AM 59.0 °F 55.2 °F 87% 30.11 in - Calm Calm - N/A   Unknown
3:15 AM 59.0 °F 54.7 °F 86% 30.11 in - Calm Calm - N/A   Unknown
3:35 AM 59.0 °F 55.0 °F 87% 30.11 in - Calm Calm - N/A   Unknown
3:55 AM 57.4 °F 53.4 °F 87% 30.11 in - Calm Calm - N/A   Unknown
4:15 AM 56.5 °F 53.2 °F 89% 30.11 in - Calm Calm - N/A   Unknown
4:35 AM 57.7 °F 54.3 °F 88% 30.11 in - Calm Calm - N/A   Unknown
4:55 AM 57.6 °F 54.0 °F 88% 30.11 in - Calm Calm - N/A   Unknown
5:15 AM 56.5 °F 53.1 °F 88% 30.12 in - Calm Calm - N/A   Unknown
5:35 AM 56.5 °F 52.3 °F 86% 30.12 in - Calm Calm - N/A   Clear
5:55 AM 56.1 °F 52.0 °F 86% 30.12 in - Calm Calm - N/A   Unknown
6:15 AM 56.5 °F 52.7 °F 87% 30.13 in - Calm Calm - N/A   Unknown
6:35 AM 58.1 °F 53.6 °F 85% 30.13 in - Calm Calm - N/A   Unknown
6:55 AM 55.0 °F 52.2 °F 90% 30.14 in - WNW 3.5 mph - N/A   Unknown
7:15 AM 59.0 °F 55.8 °F 89% 30.14 in - Calm Calm - N/A   Unknown
7:35 AM 59.0 °F 55.4 °F 88% 30.14 in - Calm Calm - N/A   Unknown
7:55 AM 61.7 °F 57.6 °F 86% 30.14 in - Calm Calm - N/A   Unknown
8:15 AM 61.7 °F 57.0 °F 85% 30.14 in - Calm Calm - N/A   Clear
8:35 AM 64.0 °F 58.1 °F 81% 30.14 in - Calm Calm - N/A   Clear
8:55 AM 65.3 °F 57.4 °F 76% 30.14 in 10.0 mi NNE 3.5 mph - N/A   Clear
9:15 AM 66.4 °F 58.1 °F 75% 30.14 in - Calm Calm - N/A   Clear
9:35 AM 66.6 °F 56.8 °F 71% 30.14 in 10.0 mi North 3.5 mph - N/A   Clear
9:55 AM 69.3 °F 57.6 °F 66% 30.14 in 10.0 mi North 4.6 mph - N/A   Clear
10:15 AM 70.5 °F 57.0 °F 62% 30.14 in 10.0 mi North 4.6 mph - N/A   Scattered Clouds
10:35 AM 71.8 °F 57.0 °F 60% 30.14 in - NNE 5.8 mph - N/A   Clear
10:55 AM 73.8 °F 57.9 °F 58% 30.13 in - North 5.8 mph - N/A   Clear
11:15 AM 74.3 °F 58.8 °F 58% 30.13 in - North 4.6 mph - N/A   Clear
11:35 AM 74.3 °F 58.8 °F 58% 30.12 in - North 9.2 mph - N/A   Clear
11:55 AM 74.3 °F 57.2 °F 55% 30.13 in - North 9.2 mph - N/A   Clear
12:15 PM 74.3 °F 56.1 °F 53% 30.12 in - NNE 10.4 mph - N/A   Clear
12:35 PM 74.5 °F 54.9 °F 50% 30.12 in - NNE 9.2 mph - N/A   Clear
12:55 PM 76.3 °F 55.9 °F 49% 30.12 in - NNE 9.2 mph - N/A   Clear
1:15 PM 74.3 °F 54.5 °F 50% 30.11 in - NNE 6.9 mph - N/A   Clear
1:35 PM 75.4 °F 54.0 °F 47% 30.11 in - North 10.4 mph 17.3 mph N/A   Clear
1:55 PM 76.1 °F 54.9 °F 48% 30.11 in - North 11.5 mph 19.6 mph N/A   Clear
2:15 PM 76.6 °F 55.9 °F 49% 30.10 in - NNE 10.4 mph - N/A   Clear
2:35 PM 76.3 °F 55.8 °F 49% 30.10 in 10.0 mi North 15.0 mph - N/A   Clear
2:55 PM 77.0 °F 55.9 °F 48% 30.10 in - North 15.0 mph 19.6 mph N/A   Clear
3:15 PM 76.6 °F 55.6 °F 48% 30.09 in - North 12.7 mph 17.3 mph N/A   Clear
3:35 PM 77.0 °F 51.1 °F 40% 30.09 in - NNE 11.5 mph - N/A   Clear
3:55 PM 77.0 °F 49.8 °F 38% 30.09 in - NNE 11.5 mph - N/A   Clear
4:15 PM 77.0 °F 45.9 °F 33% 30.09 in - NNE 13.8 mph 17.3 mph N/A   Clear
4:35 PM 77.0 °F 41.7 °F 28% 30.09 in - NNE 9.2 mph 17.3 mph N/A   Clear
4:55 PM 74.3 °F 44.1 °F 34% 30.09 in - North 4.6 mph - N/A   Clear
5:15 PM 74.3 °F 45.9 °F 36% 30.09 in - NE 5.8 mph - N/A   Clear
5:35 PM 74.3 °F 43.7 °F 33% 30.09 in - ENE 8.1 mph - N/A   Clear
5:55 PM 74.3 °F 43.9 °F 34% 30.08 in - NE 6.9 mph - N/A   Clear
6:15 PM 74.3 °F 46.4 °F 37% 30.08 in - NE 6.9 mph - N/A   Clear
6:35 PM 74.3 °F 48.4 °F 40% 30.08 in - ENE 5.8 mph - N/A   Clear
6:55 PM 74.3 °F 47.7 °F 39% 30.08 in - NNE 3.5 mph - N/A   Clear
7:15 PM 74.3 °F 49.3 °F 41% 30.08 in - North 5.8 mph - N/A   Clear
7:35 PM 71.8 °F 57.2 °F 60% 30.08 in - East 6.9 mph - N/A   Clear
7:55 PM 68.4 °F 56.8 °F 67% 30.09 in 10.0 mi ENE 6.9 mph - N/A   Clear
8:15 PM 66.4 °F 56.7 °F 71% 30.09 in - East 8.1 mph - N/A   Clear
8:35 PM 64.4 °F 55.9 °F 74% 30.09 in - ENE 6.9 mph - N/A   Clear
8:55 PM 61.7 °F 55.9 °F 81% 30.09 in - ENE 6.9 mph - N/A   Clear
9:15 PM 61.7 °F 54.3 °F 77% 30.11 in - ENE 5.8 mph - N/A   Clear
9:35 PM 60.1 °F 54.1 °F 81% 30.11 in - ENE 5.8 mph - N/A   Clear
9:55 PM 59.0 °F 53.4 °F 82% 30.12 in - East 4.6 mph - N/A   Clear
10:15 PM 59.0 °F 53.1 °F 81% 30.12 in - East 4.6 mph - N/A   Clear
10:35 PM 58.3 °F 53.8 °F 85% 30.12 in - Calm Calm - N/A   Unknown
10:55 PM 59.0 °F 54.0 °F 83% 30.11 in - Calm Calm - N/A   Clear
11:15 PM 59.0 °F 54.7 °F 86% 30.12 in - Calm Calm - N/A   Unknown
11:35 PM 56.5 °F 52.3 °F 86% 30.12 in - Calm Calm - N/A   Clear
11:55 PM 57.4 °F 52.7 °F 84% 30.11 in - Calm Calm - N/A   Unknown